EW8444 Weather Reports


time (UTC)temp
C
wind
direction
speed
KPH
gust
KPH
rain 1hr
cm
rain 24hr
cm
rain mn
cm
humidity
%
barometer
mb
20260508213906 20 190 1.6 8.0 0.00 0.00 0.00 49 1014.1
20260508213406 20 212 0.0 8.0 0.00 0.00 0.00 50 1013.9
20260508212909 20 190 0.0 3.2 0.00 0.00 0.00 49 1013.7
20260508212406 20 190 1.6 6.4 0.00 0.00 0.00 49 1013.7
20260508211909 20 258 3.2 8.0 0.00 0.00 0.00 48 1013.7
20260508211406 20 263 3.2 3.2 0.00 0.00 0.00 48 1013.6
20260508210906 20 270 0.0 11.3 0.00 0.00 0.00 47 1013.7
20260508210406 20 261 0.0 4.8 0.00 0.00 0.00 49 1013.7
20260508205906 20 261 0.0 6.4 0.00 0.00 0.00 47 1013.8
20260508205409 20 212 1.6 12.9 0.00 0.00 0.00 47 1013.9
20260508204906 20 222 1.6 11.3 0.00 0.00 0.00 47 1013.9
20260508204412 20 177 3.2 11.3 0.00 0.00 0.00 47 1013.8
20260508203912 20 224 4.8 9.7 0.00 0.00 0.00 47 1013.8
20260508203406 20 194 4.8 9.7 0.00 0.00 0.00 46 1013.8
20260508202909 21 219 4.8 9.7 0.00 0.00 0.00 45 1013.8
20260508202415 21 226 1.6 3.2 0.00 0.00 0.00 46 1013.8
20260508201909 21 227 0.0 9.7 0.00 0.00 0.00 47 1013.9
20260508201406 21 217 0.0 4.8 0.00 0.00 0.00 46 1014.0
20260508200915 21 217 0.0 8.0 0.00 0.00 0.00 47 1014.3
20260508200406 21 240 0.0 4.8 0.00 0.00 0.00 46 1014.1
20260508195909 21 248 1.6 4.8 0.00 0.00 0.00 45 1014.2
20260508195409 21 252 1.6 6.4 0.00 0.00 0.00 47 1014.3
20260508194909 21 207 3.2 8.0 0.00 0.00 0.00 45 1014.5
20260508194406 21 117 3.2 8.0 0.00 0.00 0.00 47 1014.4
20260508193912 21 223 3.2 4.8 0.00 0.00 0.00 45 1014.5
20260508193409 21 281 6.4 6.4 0.00 0.00 0.00 45 1014.7
20260508192909 21 278 1.6 12.9 0.00 0.00 0.00 44 1014.9
20260508192406 21 246 3.2 6.4 0.00 0.00 0.00 45 1014.8
20260508191906 21 250 0.0 6.4 0.00 0.00 0.00 46 1014.7
20260508191412 21 161 1.6 14.5 0.00 0.00 0.00 44 1014.7
20260508190906 21 218 11.3 14.5 0.00 0.00 0.00 46 1015.0
20260508190406 21 237 3.2 6.4 0.00 0.00 0.00 44 1015.1
20260508185915 21 188 1.6 12.9 0.00 0.00 0.00 45 1015.0
20260508185406 21 250 4.8 8.0 0.00 0.00 0.00 45 1015.0
20260508184906 21 231 4.8 6.4 0.00 0.00 0.00 43 1015.1
20260508184406 20 215 1.6 11.3 0.00 0.00 0.00 46 1015.2
20260508183906 20 236 4.8 9.7 0.00 0.00 0.00 41 1015.1
20260508183406 20 210 6.4 6.4 0.00 0.00 0.00 44 1015.0
20260508182909 20 257 1.6 11.3 0.00 0.00 0.00 40 1015.3
20260508182406 20 228 1.6 8.0 0.00 0.00 0.00 43 1015.3
20260508181912 20 180 1.6 6.4 0.00 0.00 0.00 42 1015.3
20260508181406 20 246 3.2 9.7 0.00 0.00 0.00 43 1015.3
20260508180906 20 263 8.0 11.3 0.00 0.00 0.00 43 1015.2
20260508180406 20 284 1.6 11.3 0.00 0.00 0.00 44 1015.3
20260508175909 20 235 4.8 11.3 0.00 0.00 0.00 44 1015.5
20260508175406 20 88 0.0 4.8 0.00 0.00 0.00 41 1015.5
20260508174906 20 271 0.0 8.0 0.00 0.00 0.00 45 1015.7
20260508174412 20 236 4.8 9.7 0.00 0.00 0.00 39 1015.9
20260508173906 20 234 1.6 4.8 0.00 0.00 0.00 41 1015.9
20260508173406 19 241 0.0 8.0 0.00 0.00 0.00 39 1015.9
20260508172906 19 240 0.0 9.7 0.00 0.00 0.00 44 1015.9
20260508172409 19 204 6.4 11.3 0.00 0.00 0.00 40 1015.9
20260508171912 19 242 1.6 6.4 0.00 0.00 0.00 39 1016.0
20260508171409 18 190 3.2 4.8 0.00 0.00 0.00 43 1016.2
20260508170909 18 190 4.8 11.3 0.00 0.00 0.00 42 1016.3
20260508170406 18 201 3.2 6.4 0.00 0.00 0.00 41 1016.3
20260508165906 18 212 3.2 4.8 0.00 0.00 0.00 43 1016.4
20260508165406 18 213 4.8 9.7 0.00 0.00 0.00 41 1016.6
20260508164912 18 239 3.2 6.4 0.00 0.00 0.00 41 1016.6
20260508164406 18 233 3.2 4.8 0.00 0.00 0.00 41 1016.8
20260508163909 18 211 1.6 3.2 0.00 0.00 0.00 43 1016.9
20260508163409 17 220 1.6 8.0 0.00 0.00 0.00 44 1016.9
20260508162906 17 221 3.2 8.0 0.00 0.00 0.00 45 1016.9
20260508162409 17 277 1.6 6.4 0.00 0.00 0.00 44 1016.8
20260508161912 17 252 4.8 9.7 0.00 0.00 0.00 44 1016.9
20260508161409 17 68 0.0 3.2 0.00 0.00 0.00 46 1016.9
20260508160909 17 68 1.6 8.0 0.00 0.00 0.00 43 1017.0
20260508160406 16 67 0.0 6.4 0.00 0.00 0.00 44 1017.1
20260508155909 16 267 1.6 6.4 0.00 0.00 0.00 46 1017.1
20260508155409 16 240 6.4 6.4 0.00 0.00 0.00 47 1017.3
20260508154906 16 76 3.2 6.4 0.00 0.00 0.00 46 1017.4
20260508154406 16 76 0.0 4.8 0.00 0.00 0.00 48 1017.4
20260508153906 15 76 0.0 4.8 0.00 0.00 0.00 47 1017.4
20260508153409 15 77 3.2 6.4 0.00 0.00 0.00 52 1017.5
20260508152906 15 287 1.6 3.2 0.00 0.00 0.00 51 1017.5
20260508152412 15 287 0.0 3.2 0.00 0.00 0.00 54 1017.5
20260508151906 14 287 0.0 4.8 0.00 0.00 0.00 55 1017.5
20260508151409 14 287 0.0 1.6 0.00 0.00 0.00 56 1017.4
20260508150915 14 287 0.0 8.0 0.00 0.00 0.00 55 1017.4
20260508150409 13 287 1.6 8.0 0.00 0.00 0.00 56 1017.4
20260508145906 13 244 1.6 4.8 0.00 0.00 0.00 58 1017.5
20260508145409 13 244 3.2 4.8 0.00 0.00 0.00 55 1017.5
20260508144906 13 242 1.6 6.4 0.00 0.00 0.00 61 1017.5
20260508144412 13 242 3.2 6.4 0.00 0.00 0.00 63 1017.6
20260508143906 12 218 0.0 3.2 0.00 0.00 0.00 68 1017.6
20260508143406 12 218 3.2 4.8 0.00 0.00 0.00 70 1017.7
20260508142909 12 217 0.0 1.6 0.00 0.00 0.00 74 1017.8
20260508142406 11 217 0.0 3.2 0.00 0.00 0.00 77 1017.8
20260508141909 11 218 1.6 6.4 0.00 0.00 0.00 78 1017.9
20260508141406 11 343 0.0 0.0 0.00 0.00 0.00 83 1017.9
20260508140906 11 343 0.0 0.0 0.00 0.00 0.00 84 1017.9
20260508140409 10 342 0.0 4.8 0.00 0.00 0.00 87 1017.8
20260508135915 10 343 0.0 3.2 0.00 0.00 0.00 87 1017.9
20260508135409 10 345 0.0 3.2 0.00 0.00 0.00 88 1017.9
20260508134906 10 345 0.0 1.6 0.00 0.00 0.00 90 1017.8
20260508134409 9 345 0.0 0.0 0.00 0.00 0.00 90 1017.9
20260508133906 9 345 0.0 0.0 0.00 0.00 0.00 90 1017.9
20260508133415 8 345 0.0 0.0 0.00 0.00 0.00 91 1017.9
20260508132906 8 345 0.0 0.0 0.00 0.00 0.00 91 1018.0
20260508132409 8 345 0.0 0.0 0.00 0.00 0.00 91 1018.0
20260508131906 8 345 0.0 0.0 0.00 0.00 0.00 91 1018.0
20260508131406 8 345 0.0 1.6 0.00 0.00 0.00 91 1017.9
20260508130906 8 345 0.0 1.6 0.00 0.00 0.00 91 1018.0
20260508130406 8 345 0.0 4.8 0.00 0.00 0.00 91 1018.0
20260508125915 7 344 0.0 0.0 0.00 0.00 0.00 91 1018.0
20260508125406 7 344 0.0 3.2 0.00 0.00 0.00 91 1017.9
20260508124909 7 344 1.6 3.2 0.00 0.00 0.00 91 1017.8
20260508124412 7 344 1.6 3.2 0.00 0.00 0.00 91 1017.8
20260508123906 7 344 0.0 1.6 0.00 0.00 0.00 91 1017.7
20260508123412 7 344 0.0 1.6 0.00 0.00 0.00 91 1017.8
20260508122912 7 344 0.0 1.6 0.00 0.00 0.00 91 1017.7
20260508122406 7 344 1.6 1.6 0.00 0.00 0.00 91 1017.7
20260508121906 7 344 0.0 3.2 0.00 0.00 0.00 91 1017.6
20260508121406 7 344 0.0 1.6 0.00 0.00 0.00 91 1017.6
20260508120912 7 344 1.6 1.6 0.00 0.00 0.00 91 1017.6
20260508120406 7 344 0.0 1.6 0.00 0.00 0.00 91 1017.5
20260508115912 7 344 0.0 1.6 0.00 0.00 0.00 91 1017.4
20260508115406 7 344 1.6 3.2 0.00 0.00 0.00 91 1017.3
20260508114909 7 344 0.0 3.2 0.00 0.00 0.00 91 1017.4
20260508114406 7 344 0.0 3.2 0.00 0.00 0.00 91 1017.2
20260508113906 7 344 0.0 1.6 0.00 0.00 0.00 91 1017.1
20260508113409 7 344 0.0 1.6 0.00 0.03 0.00 91 1017.0
20260508112906 7 344 0.0 0.0 0.00 0.03 0.00 91 1017.0
20260508112412 7 344 0.0 1.6 0.00 0.05 0.00 91 1016.9
20260508111906 7 344 0.0 0.0 0.00 0.08 0.00 91 1016.8
20260508111406 7 344 0.0 3.2 0.00 0.10 0.00 91 1016.7
20260508110906 7 344 0.0 0.0 0.00 0.10 0.00 91 1016.5
20260508110412 7 344 0.0 1.6 0.00 0.10 0.00 91 1016.4
20260508105906 7 344 0.0 1.6 0.00 0.13 0.00 91 1016.4
20260508105406 7 344 0.0 0.0 0.00 0.13 0.00 91 1016.3
20260508104906 7 344 0.0 0.0 0.00 0.13 0.00 91 1016.3
20260508104406 7 344 0.0 1.6 0.00 0.15 0.00 91 1016.3
20260508103906 7 344 0.0 1.6 0.00 0.18 0.00 91 1016.2
20260508103406 7 344 0.0 0.0 0.00 0.18 0.00 91 1016.2
20260508102906 7 344 0.0 3.2 0.00 0.18 0.00 91 1016.1
20260508102412 7 344 0.0 0.0 0.00 0.18 0.00 91 1016.1
20260508101906 7 344 0.0 3.2 0.00 0.18 0.00 91 1016.0
20260508101409 7 343 0.0 0.0 0.00 0.20 0.00 91 1015.8
20260508100906 7 343 0.0 1.6 0.00 0.23 0.00 91 1015.8
20260508100409 7 343 0.0 1.6 0.00 0.25 0.00 91 1015.6
20260508095906 7 343 0.0 1.6 0.00 0.25 0.00 91 1015.7
20260508095406 7 343 0.0 0.0 0.00 0.25 0.00 91 1015.6
20260508094909 7 343 0.0 1.6 0.00 0.25 0.00 91 1015.5
20260508094412 7 343 0.0 0.0 0.00 0.25 0.00 91 1015.6
20260508093915 7 343 0.0 0.0 0.00 0.25 0.00 91 1015.7
20260508093412 7 343 0.0 0.0 0.00 0.25 0.00 91 1015.6
20260508092909 7 343 0.0 1.6 0.00 0.25 0.00 91 1015.7
20260508092406 7 343 0.0 1.6 0.00 0.25 0.00 91 1015.7
20260508091909 7 343 0.0 0.0 0.00 0.25 0.00 91 1015.7
20260508091406 7 343 0.0 0.0 0.00 0.25 0.00 91 1015.6
20260508090912 8 343 0.0 0.0 0.00 0.25 0.00 91 1015.5
20260508090409 8 343 0.0 1.6 0.00 0.25 0.00 91 1015.6
20260508085415 8 340 0.0 3.2 0.00 0.25 0.00 91 1015.4
20260508084909 8 340 0.0 4.8 0.00 0.25 0.00 91 1015.5
20260508084406 8 340 0.0 4.8 0.00 0.25 0.00 91 1015.4
20260508083906 8 16 0.0 3.2 0.00 0.25 0.00 91 1015.4
20260508083406 8 17 1.6 3.2 0.00 0.25 0.00 91 1015.3
20260508082906 8 17 0.0 1.6 0.00 0.25 0.00 91 1015.2
20260508082409 8 17 0.0 3.2 0.00 0.25 0.00 91 1015.3
20260508081906 8 17 0.0 3.2 0.00 0.25 0.00 91 1015.3
20260508081409 8 17 0.0 3.2 0.00 0.25 0.00 91 1015.4
20260508080912 8 17 1.6 3.2 0.00 0.25 0.00 91 1015.3
20260508080409 8 19 0.0 1.6 0.00 0.25 0.00 91 1015.0
20260508075906 8 19 1.6 3.2 0.00 0.25 0.00 91 1015.2
20260508075415 8 23 0.0 3.2 0.00 0.25 0.00 91 1015.2
20260508074906 8 30 0.0 3.2 0.00 0.25 0.00 91 1015.3
20260508074409 8 30 1.6 3.2 0.00 0.25 0.00 91 1015.4
20260508073906 8 30 0.0 0.0 0.00 0.25 0.00 91 1015.3
20260508073406 8 30 0.0 1.6 0.00 0.25 0.00 91 1015.3
20260508072915 8 30 0.0 0.0 0.00 0.25 0.00 91 1015.3
20260508072406 8 30 0.0 0.0 0.00 0.25 0.00 91 1015.2
20260508071906 8 30 0.0 1.6 0.00 0.25 0.00 91 1015.3
20260508071406 8 30 1.6 4.8 0.00 0.25 0.00 91 1015.3
20260508070906 8 322 0.0 0.0 0.00 0.25 0.00 91 1015.3
20260508070412 8 322 0.0 1.6 0.00 0.25 0.00 91 1015.3
20260508065909 8 322 0.0 3.2 0.00 0.25 0.00 91 1015.3
20260508065409 8 322 0.0 4.8 0.00 0.25 0.00 91 1015.3
20260508064906 8 327 0.0 4.8 0.00 0.25 0.00 91 1015.3
20260508064412 8 333 4.8 4.8 0.00 0.25 0.00 91 1015.2
20260508063906 8 324 0.0 3.2 0.00 0.25 0.00 91 1015.3
20260508063406 8 323 1.6 4.8 0.00 0.25 0.00 91 1015.3
20260508062906 8 325 0.0 4.8 0.00 0.25 0.00 91 1015.3
20260508062412 8 315 1.6 4.8 0.00 0.25 0.00 91 1015.4
20260508061912 8 318 0.0 4.8 0.00 0.25 0.00 91 1015.4
20260508061409 8 317 1.6 4.8 0.00 0.25 0.00 91 1015.4
20260508060906 8 319 0.0 6.4 0.00 0.25 0.00 91 1015.4
20260508060406 8 346 4.8 4.8 0.00 0.25 0.00 91 1015.4
20260508055906 8 348 0.0 3.2 0.00 0.25 0.00 90 1015.4
20260508055406 8 348 0.0 3.2 0.00 0.25 0.00 90 1015.4
20260508054909 8 348 3.2 3.2 0.00 0.25 0.00 90 1015.5
20260508054406 8 350 0.0 0.0 0.00 0.25 0.00 90 1015.4
20260508053906 8 350 0.0 0.0 0.00 0.25 0.00 90 1015.5
20260508053406 8 350 0.0 0.0 0.00 0.25 0.00 90 1015.7
20260508052909 8 350 0.0 0.0 0.00 0.25 0.00 90 1015.6
20260508052412 8 350 0.0 0.0 0.00 0.25 0.00 90 1015.7
20260508051909 8 350 0.0 0.0 0.00 0.25 0.00 90 1015.7
20260508051412 8 350 0.0 0.0 0.00 0.25 0.00 90 1015.6
20260508050909 8 350 0.0 0.0 0.00 0.25 0.00 90 1015.7
20260508050406 8 350 0.0 0.0 0.00 0.25 0.00 90 1015.7
20260508045909 8 350 0.0 3.2 0.00 0.25 0.00 90 1015.6
20260508045406 8 350 0.0 3.2 0.00 0.25 0.00 89 1015.6
20260508044912 8 350 0.0 1.6 0.00 0.25 0.00 89 1015.5
20260508044406 8 350 0.0 4.8 0.00 0.25 0.00 88 1015.5
20260508043909 8 5 0.0 0.0 0.00 0.25 0.00 88 1015.5
20260508043409 8 5 0.0 0.0 0.00 0.25 0.00 88 1015.5
20260508042906 8 5 0.0 1.6 0.00 0.25 0.00 88 1015.3
20260508042415 8 5 0.0 0.0 0.00 0.25 0.00 87 1015.5
20260508041909 8 5 0.0 0.0 0.00 0.28 0.00 87 1015.5
20260508041406 8 5 0.0 0.0 0.00 0.28 0.00 87 1015.4
20260508040906 8 5 0.0 0.0 0.00 0.28 0.00 87 1015.3
20260508040409 8 5 0.0 0.0 0.00 0.30 0.00 87 1015.2
20260508035909 8 5 0.0 0.0 0.00 0.30 0.00 87 1015.4
20260508035406 8 5 0.0 0.0 0.00 0.30 0.00 87 1015.5
20260508034906 8 5 0.0 0.0 0.00 0.33 0.00 86 1015.5
20260508034409 8 5 0.0 0.0 0.00 0.33 0.00 86 1015.4
20260508033906 8 5 0.0 0.0 0.00 0.36 0.00 86 1015.3
20260508033406 8 5 0.0 0.0 0.00 0.36 0.00 86 1015.5
20260508032915 8 5 0.0 0.0 0.00 0.36 0.00 86 1015.5
20260508032406 8 5 0.0 0.0 0.00 0.36 0.00 86 1015.6
20260508031912 8 5 0.0 0.0 0.00 0.36 0.00 86 1015.6
20260508031412 9 5 0.0 0.0 0.00 0.36 0.00 86 1015.6
20260508030912 9 5 0.0 0.0 0.00 0.36 0.00 86 1015.5
20260508030412 9 5 0.0 0.0 0.00 0.36 0.00 86 1015.5
20260508025906 9 5 0.0 0.0 0.00 0.36 0.00 86 1015.6
20260508025409 9 5 0.0 0.0 0.00 0.36 0.00 86 1015.5
20260508024909 9 5 0.0 0.0 0.00 0.36 0.00 86 1015.3
20260508024406 9 5 0.0 0.0 0.00 0.36 0.00 86 1015.3
20260508023909 10 5 0.0 0.0 0.00 0.36 0.00 86 1015.2
20260508023406 10 5 0.0 0.0 0.00 0.36 0.00 86 1015.1
20260508022906 10 5 0.0 0.0 0.00 0.36 0.00 86 1015.0
20260508022406 10 5 0.0 0.0 0.00 0.36 0.00 86 1015.0
20260508021906 10 5 0.0 0.0 0.00 0.36 0.00 85 1014.8
20260508021412 10 5 0.0 0.0 0.00 0.36 0.00 85 1014.8
20260508020912 10 5 0.0 0.0 0.00 0.36 0.00 85 1014.7
20260508020406 10 5 0.0 1.6 0.00 0.41 0.00 85 1014.7
20260508015912 10 5 0.0 0.0 0.00 0.43 0.00 85 1014.8
20260508015406 10 5 0.0 0.0 0.00 0.43 0.00 85 1014.7
20260508014909 10 5 0.0 0.0 0.00 0.43 0.00 84 1014.6
20260508014409 10 5 0.0 0.0 0.00 0.43 0.00 84 1014.5
20260508013906 10 5 0.0 0.0 0.00 0.43 0.00 84 1014.4
20260508013412 10 5 0.0 0.0 0.00 0.46 0.00 83 1014.4
20260508012912 10 5 0.0 0.0 0.00 0.46 0.00 83 1014.3
20260508012409 10 5 0.0 0.0 0.00 0.46 0.00 83 1014.3
20260508011500 10 5 0.0 0.0 0.00 0.53 0.00 82 1014.1
20260508011004 11 5 0.0 0.0 0.00 0.53 0.00 82 1014.1
20260508010507 11 5 0.0 0.0 0.00 0.53 0.00 81 1014.1
20260508010000 11 5 0.0 0.0 0.00 0.56 0.00 81 1014.0
20260508005507 11 5 0.0 0.0 0.00 0.56 0.00 81 1013.9
20260508005004 11 5 0.0 1.6 0.00 0.56 0.00 80 1013.9
20260508004501 11 5 0.0 0.0 0.00 0.56 0.00 80 1013.9
20260508004001 11 5 0.0 1.6 0.00 0.58 0.00 80 1013.9
20260508003507 11 5 0.0 1.6 0.00 0.61 0.00 79 1013.9
20260508003000 12 5 0.0 1.6 0.00 0.64 0.00 79 1013.8
20260508002504 12 5 1.6 4.8 0.00 0.66 0.00 78 1013.7
20260508002007 12 0 0.0 3.2 0.00 0.66 0.00 78 1013.7
20260508001510 12 0 1.6 4.8 0.00 0.66 0.00 77 1013.6
20260508001000 12 0 1.6 3.2 0.00 0.66 0.00 76 1013.5
20260508000500 12 15 1.6 6.4 0.00 0.66 0.00 76 1013.6
20260508000004 12 34 0.0 3.2 0.00 0.66 0.00 76 1013.6
20260507235501 13 34 0.0 3.2 0.00 0.66 0.00 75 1013.5
20260507235001 13 309 1.6 4.8 0.00 0.66 0.00 74 1013.6
20260507234504 13 68 1.6 4.8 0.00 0.66 0.00 73 1013.6
20260507234000 13 319 0.0 8.0 0.00 0.66 0.00 73 1013.5
20260507233504 13 11 3.2 6.4 0.00 0.69 0.00 74 1013.5
20260507233007 13 317 0.0 4.8 0.00 0.71 0.00 74 1013.5
20260507232500 13 55 3.2 3.2 0.00 0.71 0.00 73 1013.5
20260507232001 13 344 0.0 8.0 0.00 0.71 0.00 73 1013.6
20260507231507 13 22 3.2 6.4 0.00 0.71 0.00 74 1013.5
20260507231001 13 303 0.0 6.4 0.00 0.71 0.00 74 1013.5
20260507230504 13 277 1.6 4.8 0.00 0.71 0.00 75 1013.5
20260507230000 13 321 0.0 12.9 0.00 0.76 0.00 74 1013.5
20260507225503 13 329 1.6 16.1 0.00 0.76 0.00 74 1013.6
20260507225001 13 38 3.2 8.0 0.00 0.79 0.00 75 1013.6
20260507224507 13 292 8.0 11.3 0.00 0.79 0.00 74 1013.6
20260507224001 13 33 1.6 8.0 0.00 0.81 0.00 74 1013.5
20260507223504 13 17 0.0 6.4 0.00 0.81 0.00 73 1013.4
20260507223004 13 351 0.0 6.4 0.00 0.81 0.00 73 1013.4
20260507222500 13 38 0.0 6.4 0.00 0.81 0.00 73 1013.4
20260507222001 13 107 3.2 4.8 0.00 0.81 0.00 73 1013.3
20260507221500 13 9 4.8 8.0 0.00 0.81 0.00 74 1013.4
20260507221007 13 355 0.0 4.8 0.00 0.81 0.00 75 1013.3
20260507220501 13 311 3.2 9.7 0.00 0.81 0.00 74 1013.3
20260507220004 13 319 3.2 8.0 0.00 0.81 0.00 75 1013.2
20260507215501 13 309 0.0 8.0 0.00 0.81 0.00 75 1013.2
20260507215004 13 313 0.0 9.7 0.00 0.81 0.00 74 1013.0
20260507214504 13 13 0.0 9.7 0.00 0.81 0.00 75 1012.9